Home   Weather   Dover   Past weeks

Flag for USA Past Weather in Dover, Delaware, USA — Yesterday and Last 2 Weeks

52 °F

Passing clouds.

Feels Like: 46 °F
Forecast: 47 / 65 °F
Wind: 21 mph from West

Location: Dover Air Force Base

Current Time: Oct 22, 2016 at 9:27:44 PM

Latest Report: Oct 22, 2016 at 9:03 PM

Visibility: 10 mi

Pressure: 29.78 "Hg

Humidity: 67%

Dew Point: 41 °F

Location of DoverLocation

Past Weather in Dover — Graph


Dover Temperature Yesterday

Maximum temperature yesterday: 79 °F (at 12:58 PM)
Minimum temperature yesterday: 58 °F (at 11:58 PM)
Average temperature yesterday: 67 °F

High & Low Weather Summary for the Past Weeks

High85 °F (Oct 19, 2:58 PM)100% (Oct 7, 7:58 PM)30.47 "Hg (Oct 7, 7:58 PM)
Low40 °F (Oct 11, 6:58 AM)57% (Oct 22, 4:58 PM)29.48 "Hg (Oct 21, 11:03 PM)
Average61 °F95%30.07 "Hg
* Reported Oct 7 7:58 PM — Oct 22 7:58 PM, Dover, Weather by CustomWeather, © 2016

Note: Actual official high and low records may vary slightly from our data, if they occured in-between our weather recording intervals... More about our weather records


Dover Weather History for the Previous 24 Hours

Scroll right to see more
Time TempWeatherWind HumidityBarometerVisibility
7:58 PM
Sat, Oct 22
53 °FPassing clouds.17 mph64%29.76 "Hg7 mi
6:58 PM54 °FClear.14 mph59%29.73 "Hg10 mi
5:58 PM56 °FSunny.13 mph59%29.69 "Hg10 mi
4:58 PM58 °FSunny.17 mph57%29.67 "Hg10 mi
3:58 PM58 °FSunny.20 mph61%29.66 "Hg10 mi
2:58 PM58 °FSunny.22 mph68%29.64 "Hg10 mi
1:58 PM58 °FPassing clouds.20 mph76%29.64 "Hg10 mi
1:02 PM55 °FPassing clouds.21 mph88%29.62 "Hg10 mi
11:58 AM53 °FPassing clouds.17 mph98%29.64 "Hg10 mi
10:58 AM50 °FLight rain. Passing clouds.15 mph100%29.62 "Hg9 mi
9:58 AM52 °FLight rain. Broken clouds.14 mph99%29.60 "Hg10 mi
8:58 AM52 °FMostly cloudy.17 mph99%29.57 "Hg10 mi
7:58 AM51 °FLight rain. Partly sunny.15 mph99%29.55 "Hg10 mi
6:58 AM51 °FLight rain. Passing clouds.14 mph100%29.54 "Hg10 mi
5:58 AM52 °FLight rain. Passing clouds.17 mph100%29.52 "Hg10 mi
5:01 AM54 °FDrizzle. Overcast.14 mph100%29.50 "Hg10 mi
4:58 AM54 °FDrizzle. Overcast.13 mph100%29.51 "Hg10 mi
3:58 AM54 °FLight rain. Mostly cloudy.13 mph100%29.49 "Hg10 mi
3:03 AM54 °FLight rain. Passing clouds.15 mph100%29.48 "Hg10 mi
2:58 AM54 °FLight rain. Partly cloudy.13 mph100%29.50 "Hg10 mi
2:03 AM55 °FLight rain. Passing clouds.15 mph100%29.50 "Hg10 mi
12:58 AM56 °FClear.14 mph100%29.50 "Hg10 mi
11:58 PM
Fri, Oct 21
58 °FLight rain. Passing clouds.17 mph100%29.50 "Hg10 mi
11:03 PM59 °FLight rain. Passing clouds.17 mph100%29.48 "Hg10 mi
10:58 PM60 °FLight rain. Passing clouds.16 mph100%29.49 "Hg10 mi
9:58 PM63 °FOvercast.13 mph100%29.51 "Hg10 mi
9:00 PM64 °FPassing clouds.13 mph100%29.50 "Hg9 mi
Weather by CustomWeather, © 2016

See weather overviewHow to use our weather pages